Temp
-8 -8 -8 -9 -9 -9 -9 -9 -9 -9 -9 -9 -9 -9 -9 -9 -9 -9 -9 -9 -9 -9 -9 -9 -10 -10 -10 -10 -10 -10 -10 -10 -10 -10 -10 -10 -10 -9 -9 -9 -9 -9 -9
-9 -9 -9 -9 -9 -9 -9 -9 -9 -9 -9 -9 -9 -9 -9 -9 -9 -9 -9 -9 -10 -10 -9 -10 -10 -10 -10 -10 -10 -10 -10 -10 -10 -10 -10 -10 -10 -10 -10 -10 -10 -9 -9
-9 -9 -9 -9 -9 -9 -9 -9 -9 -9 -9 -9 -9 -9 -9 -9 -9 -9 -9 -10 -10 -10 -10 -10 -10 -10 -10 -10 -10 -10 -10 -10 -10 -10 -10 -10 -10 -10 -10 -10 -10 -10 -10
-9 -9 -9 -9 -9 -9 -9 -9 -9 -9 -9 -9 -9 -9 -9 -9 -9 -9 -10 -10 -10 -10 -10 -10 -10 -10 -10 -10 -10 -10 -10 -10 -10 -10 -10 -11 -11 -11 -10 -10 -10 -10 -10
-10 -10 -10 -10 -10 -10 -10 -10 -10 -10 -10 -9 -9 -9 -9 -9 -9 -10 -10 -10 -10 -10 -10 -10 -10 -10 -10 -10 -11 -10 -11 -11 -10 -10 -11 -11 -11 -11 -11 -11 -11 -11 -10
-10 -10 -10 -10 -10 -10 -10 -10 -10 -10 -10 -10 -10 -9 -9 -10 -10 -10 -10 -10 -10 -10 -10 -10 -10 -10 -10 -10 -10 -11 -11 -11 -11 -10 -11 -11 -11 -11 -11 -11 -11 -11 -11
-11 -11 -11 -11 -10 -10 -10 -10 -10 -10 -10 -10 -10 -10 -9 -9 -10 -10 -10 -10 -10 -10 -10 -10 -10 -10 -10 -10 -10 -11 -11 -11 -11 -11 -11 -11 -11 -11 -11 -11 -11 -11 -11
-11 -11 -11 -11 -11 -11 -11 -11 -10 -10 -10 -10 -10 -10 -9 -10 -10 -10 -10 -10 -10 -10 -10 -10 -10 -10 -11 -11 -11 -11 -11 -11 -11 -11 -11 -11 -11 -11 -11 -11 -11 -11 -11
-11 -11 -11 -11 -11 -11 -11 -11 -11 -11 -11 -10 -10 -10 -10 -10 -10 -10 -10 -10 -10 -10 -10 -10 -10 -11 -11 -11 -11 -11 -11 -11 -11 -11 -11 -11 -11 -11 -11 -11 -11 -11 -11
-13 -12 -12 -12 -11 -11 -11 -11 -11 -11 -11 -11 -10 -11 -10 -10 -10 -10 -10 -10 -10 -10 -10 -10 -10 -11 -11 -11 -11 -11 -11 -11 -11 -11 -11 -11 -11 -11 -11 -11 -11 -11 -11
-13 -13 -13 -12 -12 -12 -12 -12 -12 -11 -11 -11 -11 -11 -11 -10 -10 -11 -11 -11 -10 -10 -10 -10 -11 -11 -11 -11 -11 -11 -11 -11 -11 -11 -11 -11 -11 -11 -11 -11 -11 -11 -11
-15 -14 -13 -12 -12 -12 -12 -12 -13 -12 -11 -11 -11 -11 -11 -11 -11 -11 -11 -11 -11 -11 -11 -10 -11 -11 -11 -11 -11 -11 -11 -12 -12 -12 -12 -12 -11 -11 -11 -11 -11 -11 -11
-14 -14 -15 -15 -13 -12 -12 -13 -12 -13 -13 -12 -12 -12 -11 -11 -11 -11 -11 -11 -11 -11 -11 -11 -11 -11 -11 -11 -11 -12 -12 -12 -12 -12 -12 -12 -12 -12 -12 -11 -11 -11 -11
-16 -15 -14 -14 -14 -14 -13 -13 -13 -13 -13 -13 -12 -12 -12 -12 -12 -12 -12 -11 -11 -11 -11 -11 -11 -11 -11 -11 -12 -12 -12 -12 -12 -12 -12 -12 -12 -12 -12 -11 -11 -11 -11
-16 -16 -15 -15 -15 -14 -14 -14 -13 -13 -14 -13 -13 -12 -12 -12 -12 -12 -12 -12 -12 -12 -12 -12 -11 -11 -11 -12 -12 -12 -12 -12 -12 -12 -12 -12 -12 -12 -12 -12 -12 -12 -12
-17 -17 -16 -16 -15 -15 -14 -14 -14 -13 -13 -14 -13 -13 -12 -12 -13 -12 -12 -12 -12 -12 -12 -12 -12 -12 -12 -12 -12 -12 -12 -12 -12 -12 -12 -12 -12 -12 -12 -12 -12 -12 -12
-21 -20 -18 -18 -17 -16 -16 -15 -14 -14 -14 -14 -14 -13 -13 -13 -13 -13 -13 -12 -13 -13 -12 -12 -12 -12 -12 -12 -12 -12 -12 -12 -12 -12 -12 -12 -12 -12 -12 -12 -12 -12 -12
-26 -25 -24 -23 -22 -19 -17 -16 -15 -15 -14 -14 -14 -14 -13 -14 -13 -13 -13 -13 -13 -13 -13 -13 -12 -13 -12 -12 -12 -12 -12 -12 -13 -13 -12 -12 -12 -12 -12 -12 -12 -12 -12
-27 -26 -26 -25 -24 -23 -21 -19 -18 -17 -15 -15 -15 -14 -13 -13 -13 -13 -14 -14 -14 -13 -13 -13 -13 -13 -13 -13 -13 -13 -13 -13 -13 -13 -13 -13 -12 -12 -12 -12 -13 -13 -13
-27 -27 -27 -26 -27 -26 -25 -24 -23 -22 -19 -17 -16 -15 -14 -13 -16 -15 -14 -15 -14 -13 -14 -13 -13 -14 -13 -13 -13 -13 -13 -13 -13 -13 -13 -13 -13 -13 -13 -13 -13 -13 -13
-27 -27 -27 -27 -27 -27 -26 -26 -25 -25 -23 -22 -20 -18 -17 -14 -16 -17 -15 -15 -14 -14 -14 -13 -14 -14 -14 -13 -13 -13 -13 -13 -14 -14 -13 -13 -14 -13 -13 -13 -13 -13 -13
-28 -27 -28 -27 -27 -27 -26 -26 -25 -25 -25 -24 -22 -20 -18 -17 -16 -17 -16 -16 -15 -15 -14 -14 -14 -14 -14 -14 -13 -13 -13 -13 -13 -15 -14 -14 -13 -13 -13 -13 -14 -15 -15
-28 -28 -28 -27 -27 -26 -26 -26 -25 -25 -24 -24 -22 -20 -19 -18 -17 -17 -17 -16 -16 -15 -14 -14 -14 -14 -14 -14 -14 -14 -14 -13 -14 -15 -14 -14 -14 -13 -14 -16 -16 -15 -16
-28 -28 -28 -27 -26 -26 -26 -25 -25 -24 -25 -22 -20 -21 -19 -19 -18 -17 -17 -16 -16 -15 -15 -14 -14 -14 -14 -14 -14 -13 -14 -14 -14 -14 -14 -13 -15 -16 -16 -16 -16 -16 -16
-28 -28 -28 -27 -26 -26 -26 -25 -25 -24 -24 -23 -21 -21 -21 -20 -19 -17 -16 -16 -16 -15 -15 -14 -14 -14 -14 -14 -14 -13 -14 -14 -14 -14 -15 -16 -16 -15 -16 -16 -17 -18 -18
-28 -28 -27 -27 -26 -26 -25 -24 -24 -23 -22 -22 -22 -20 -20 -19 -18 -17 -17 -16 -16 -15 -15 -15 -14 -14 -14 -14 -13 -14 -14 -13 -13 -13 -16 -15 -16 -17 -16 -16 -17 -18 -18
Height
5861 5861 5860 5860 5860 5859 5859 5858 5858 5857 5857 5856 5856 5856 5856 5855 5855 5855 5855 5854 5854 5853 5853 5852 5852 5851 5851 5850 5850 5850 5850 5850 5850 5851 5852 5852 5853 5854 5854 5855 5855 5856 5856
5852 5852 5852 5851 5851 5851 5850 5850 5850 5849 5849 5849 5849 5849 5849 5848 5848 5848 5848 5848 5848 5848 5847 5847 5847 5846 5845 5845 5845 5845 5845 5845 5845 5846 5847 5848 5849 5849 5849 5850 5851 5852 5853
5844 5843 5842 5842 5841 5841 5841 5841 5840 5840 5840 5840 5840 5840 5841 5841 5841 5841 5841 5841 5841 5841 5841 5841 5841 5840 5839 5839 5839 5839 5840 5839 5840 5840 5841 5842 5843 5844 5845 5846 5846 5847 5848
5834 5833 5832 5832 5831 5831 5831 5831 5831 5831 5831 5831 5831 5832 5833 5833 5833 5833 5833 5833 5833 5834 5834 5834 5835 5834 5834 5833 5833 5833 5833 5834 5834 5834 5835 5836 5836 5837 5839 5840 5840 5842 5842
5822 5822 5821 5821 5820 5820 5820 5820 5820 5820 5821 5821 5822 5823 5823 5824 5825 5825 5825 5825 5825 5826 5827 5827 5828 5828 5827 5827 5827 5827 5827 5827 5828 5828 5828 5829 5830 5831 5832 5834 5834 5835 5836
5810 5809 5808 5808 5808 5807 5807 5808 5809 5810 5811 5811 5811 5812 5813 5814 5816 5816 5816 5817 5817 5817 5818 5819 5820 5820 5820 5820 5820 5820 5821 5821 5821 5821 5822 5823 5824 5825 5826 5827 5828 5829 5829
5798 5797 5796 5794 5794 5795 5796 5797 5797 5798 5799 5799 5801 5802 5802 5804 5806 5807 5807 5808 5808 5809 5809 5810 5811 5812 5812 5812 5812 5813 5814 5814 5815 5815 5816 5816 5817 5819 5820 5821 5821 5822 5822
5787 5786 5784 5783 5781 5781 5782 5783 5785 5786 5786 5787 5789 5790 5792 5795 5796 5795 5798 5798 5798 5800 5800 5801 5802 5803 5803 5804 5805 5805 5806 5807 5808 5808 5809 5809 5810 5811 5812 5813 5814 5815 5815
5771 5771 5771 5770 5769 5769 5769 5769 5769 5770 5772 5773 5776 5777 5781 5784 5784 5785 5787 5788 5789 5790 5790 5791 5792 5794 5795 5796 5796 5797 5798 5799 5800 5801 5801 5802 5802 5803 5803 5804 5805 5806 5807
5750 5751 5752 5753 5754 5754 5755 5755 5755 5756 5757 5759 5761 5765 5767 5770 5773 5776 5776 5777 5779 5780 5780 5781 5782 5784 5785 5786 5787 5788 5789 5790 5791 5793 5793 5794 5795 5795 5795 5796 5796 5797 5798
5729 5729 5730 5732 5734 5736 5738 5739 5740 5741 5742 5743 5747 5749 5751 5755 5761 5763 5766 5766 5768 5769 5771 5771 5772 5773 5775 5776 5778 5779 5780 5781 5781 5782 5783 5784 5785 5786 5786 5786 5787 5788 5789
5709 5708 5706 5709 5713 5716 5720 5722 5723 5724 5726 5729 5731 5734 5738 5741 5745 5748 5751 5755 5756 5758 5759 5761 5761 5762 5764 5766 5767 5769 5770 5771 5772 5772 5773 5773 5774 5775 5775 5776 5776 5777 5778
5685 5685 5685 5685 5688 5693 5698 5703 5704 5707 5709 5712 5715 5720 5722 5727 5730 5733 5737 5741 5744 5745 5748 5750 5750 5751 5753 5754 5757 5758 5759 5760 5761 5761 5762 5762 5763 5763 5764 5765 5766 5766 5767
5658 5657 5659 5661 5664 5666 5671 5677 5684 5688 5690 5694 5698 5703 5707 5711 5715 5719 5722 5726 5730 5733 5736 5739 5738 5739 5741 5743 5745 5747 5748 5749 5749 5750 5750 5750 5751 5751 5752 5753 5754 5754 5755
5629 5629 5631 5634 5638 5641 5646 5652 5657 5666 5670 5676 5679 5684 5690 5695 5700 5704 5708 5712 5716 5720 5723 5725 5727 5727 5729 5732 5733 5735 5736 5736 5737 5737 5737 5737 5738 5738 5739 5739 5739 5739 5740
5594 5599 5601 5602 5606 5612 5618 5622 5632 5638 5645 5655 5660 5664 5671 5678 5683 5689 5694 5697 5702 5706 5710 5713 5712 5715 5717 5720 5721 5723 5723 5724 5723 5723 5724 5724 5724 5724 5724 5724 5724 5725 5726
5558 5560 5565 5571 5573 5577 5584 5592 5601 5610 5617 5630 5636 5645 5652 5659 5666 5673 5679 5683 5688 5692 5697 5699 5701 5702 5706 5707 5708 5710 5711 5710 5710 5710 5709 5709 5709 5708 5707 5708 5708 5709 5709
5537 5534 5534 5534 5539 5546 5552 5561 5571 5578 5589 5602 5613 5622 5633 5640 5650 5657 5665 5669 5674 5679 5684 5687 5689 5692 5693 5695 5696 5696 5697 5697 5696 5695 5694 5693 5692 5691 5691 5691 5691 5690 5690
5518 5517 5514 5512 5514 5518 5522 5528 5534 5544 5558 5572 5587 5599 5611 5620 5632 5641 5650 5656 5661 5666 5672 5676 5678 5680 5682 5683 5684 5684 5683 5683 5682 5680 5678 5677 5675 5674 5674 5673 5672 5671 5670
5501 5499 5496 5495 5496 5496 5500 5505 5510 5517 5526 5541 5559 5573 5587 5603 5614 5625 5635 5643 5649 5654 5661 5665 5666 5670 5672 5672 5673 5673 5672 5670 5668 5665 5663 5661 5659 5658 5655 5653 5652 5650 5649
5485 5484 5481 5481 5482 5482 5486 5489 5493 5499 5505 5519 5537 5554 5568 5583 5596 5607 5619 5630 5636 5643 5649 5654 5657 5660 5662 5661 5661 5660 5660 5656 5654 5649 5647 5643 5643 5640 5637 5634 5630 5626 5622
5470 5470 5468 5468 5470 5471 5473 5476 5478 5484 5490 5500 5516 5537 5549 5562 5579 5593 5606 5619 5626 5632 5638 5644 5647 5650 5651 5652 5650 5648 5645 5644 5641 5633 5631 5627 5622 5619 5614 5611 5606 5603 5600
5456 5457 5456 5455 5457 5459 5460 5462 5464 5468 5477 5487 5501 5522 5534 5546 5563 5581 5595 5608 5615 5622 5628 5634 5638 5640 5642 5640 5639 5636 5632 5630 5625 5617 5612 5612 5599 5596 5588 5587 5588 5588 5586
5442 5443 5443 5443 5445 5447 5447 5447 5449 5451 5458 5473 5487 5505 5521 5535 5552 5572 5587 5598 5606 5612 5618 5626 5629 5630 5631 5629 5627 5624 5620 5615 5611 5599 5591 5593 5575 5574 5568 5568 5567 5568 5569
5429 5430 5430 5431 5432 5435 5434 5434 5435 5438 5442 5454 5475 5493 5511 5529 5545 5564 5579 5589 5597 5603 5611 5617 5619 5620 5620 5617 5615 5612 5607 5602 5595 5584 5568 5563 5562 5560 5556 5552 5549 5546 5547
5416 5417 5419 5420 5420 5422 5421 5421 5425 5429 5435 5445 5460 5482 5504 5520 5540 5559 5571 5582 5590 5597 5604 5607 5610 5611 5610 5607 5604 5600 5595 5586 5576 5571 5559 5549 5543 5537 5537 5533 5531 5532 5532
Wind_Speed
37 36 35 34 33 32 32 32 32 32 30 30 29 28 28 27 26 25 25 24 23 23 22 21 21 21 21 22 22 22 22 22 22 22 21 20 18 17 17 16 15 14 14
39 39 38 38 36 36 35 35 35 35 35 34 34 32 31 31 29 28 27 27 26 25 25 23 22 23 23 23 22 22 22 23 23 23 23 23 21 20 19 19 19 18 17
41 41 40 41 40 39 38 38 38 38 38 38 37 36 34 33 33 32 30 29 28 26 26 26 24 23 24 23 23 22 22 22 23 24 24 24 24 23 22 22 22 22 21
45 45 45 45 45 43 42 42 42 41 41 41 40 38 37 35 34 34 33 32 30 28 27 27 26 25 25 25 24 24 23 23 23 24 25 26 26 25 25 25 25 25 25
47 48 48 49 49 48 47 46 45 45 43 42 42 40 38 37 36 36 35 34 33 32 30 28 28 27 26 26 26 26 25 25 25 25 26 27 27 28 28 27 28 28 28
51 52 52 52 52 51 49 49 49 48 47 46 45 44 41 39 37 37 37 35 35 35 32 31 30 30 28 27 27 28 27 26 26 27 27 28 28 29 29 30 30 30 31
46 50 51 52 53 54 54 53 52 50 50 50 48 46 45 42 40 39 39 37 37 36 36 34 32 32 31 29 29 29 30 28 27 27 26 27 27 28 29 30 31 32 32
49 47 47 47 50 52 53 53 54 53 53 52 51 49 47 43 42 42 40 39 39 38 38 37 35 34 34 32 31 31 32 32 29 29 28 29 29 30 30 31 31 32 33
57 56 54 52 50 50 49 50 51 52 53 54 53 53 50 47 45 44 43 42 41 41 40 40 38 37 35 34 34 32 33 34 34 32 31 32 32 31 32 33 33 33 34
66 63 61 58 57 57 54 53 52 51 52 55 55 53 52 51 48 45 44 45 44 43 43 42 41 39 38 37 36 35 34 35 36 35 34 34 34 34 34 35 35 36 36
74 73 70 68 64 61 60 58 58 57 55 54 53 54 54 53 50 50 47 48 47 46 44 44 43 42 40 39 38 37 36 36 38 38 38 38 37 37 36 37 38 38 38
78 80 81 77 73 68 62 62 60 61 60 58 56 55 54 53 52 52 51 48 46 46 46 45 45 44 43 41 41 39 38 38 39 40 41 41 41 41 41 40 40 40 41
86 86 86 87 81 77 72 66 65 65 64 63 60 57 55 54 53 52 51 49 47 46 44 45 46 46 45 43 42 41 41 41 41 42 43 43 44 44 44 44 44 44 45
94 94 91 90 89 85 80 77 71 65 67 67 66 62 59 56 54 54 52 51 47 46 44 45 47 47 46 45 44 43 42 43 44 44 44 45 45 46 47 47 47 48 48
97 100 97 94 92 89 86 82 80 76 70 71 70 69 64 60 57 54 54 53 50 47 45 45 46 49 48 45 45 45 44 45 45 45 45 46 46 47 48 49 50 51 51
90 95 101 103 100 96 93 93 88 86 81 74 73 73 71 66 62 57 54 53 53 50 46 45 49 49 48 47 46 45 45 45 47 46 47 47 48 49 51 52 53 53 53
76 80 83 93 103 105 102 97 94 92 90 83 79 78 75 71 67 63 55 54 52 52 47 46 47 48 48 47 46 45 45 47 48 48 48 49 49 51 54 55 55 56 56
54 54 58 62 69 83 93 97 99 100 96 91 86 82 80 75 71 67 59 55 52 51 50 46 46 47 47 47 46 46 47 48 48 49 50 51 53 55 56 57 57 58 59
48 48 51 54 56 64 81 95 99 101 98 96 93 87 85 81 73 71 63 56 53 51 48 44 45 46 46 47 46 46 48 48 50 51 52 54 57 58 58 59 61 63 65
47 46 48 47 50 53 56 67 79 86 97 101 100 92 89 84 74 70 67 56 54 50 46 43 44 44 44 46 46 46 48 49 51 52 54 57 59 60 61 63 65 68 71
44 47 43 42 39 46 45 48 53 53 66 70 63 76 84 90 76 69 66 57 53 48 45 43 42 41 43 45 46 47 47 50 51 53 56 60 61 62 64 67 70 70 61
46 44 38 40 35 36 44 45 49 47 48 51 59 67 83 85 81 67 62 51 49 45 43 42 39 40 42 44 47 48 49 49 51 57 59 60 64 66 71 70 57 49 47
43 38 33 37 39 31 37 43 48 48 48 45 46 55 65 77 80 63 54 47 46 42 41 40 38 39 42 45 47 45 47 50 53 56 60 61 69 66 57 44 42 45 46
40 35 33 31 33 33 40 43 46 53 50 50 51 47 64 60 70 57 49 44 43 41 38 36 36 39 42 43 43 44 46 50 51 59 65 63 56 48 48 51 54 49 46
38 36 33 28 33 35 40 43 40 41 44 55 67 61 51 46 42 55 46 42 41 38 35 35 36 39 39 40 41 42 47 49 54 59 52 51 50 50 49 58 56 41 42
36 35 29 27 30 32 32 32 39 34 40 42 57 48 48 41 43 49 40 41 38 35 33 34 36 34 35 37 40 41 45 52 58 54 44 53 52 50 42 43 41 38 37
Wind_Direction
264 265 264 263 264 264 264 265 266 268 266 266 265 263 265 267 268 270 273 276 277 282 285 285 283 279 278 280 278 274 270 270 267 267 266 268 267 264 263 263 266 264 262
263 263 264 265 264 262 262 263 263 264 266 265 266 265 264 265 267 267 269 272 274 274 278 281 282 279 277 279 278 275 271 267 268 263 262 263 264 265 265 262 261 264 265
262 262 262 263 263 262 262 261 262 262 263 265 265 267 267 264 265 266 267 269 271 271 272 275 277 279 275 275 277 274 271 268 265 264 261 261 262 264 266 266 266 265 265
265 265 265 264 264 264 264 264 263 264 264 266 267 268 269 268 266 265 264 266 269 269 268 270 272 275 276 271 272 273 272 270 266 263 260 258 259 262 263 266 267 268 268
261 261 262 263 262 263 264 263 265 264 265 266 268 269 269 269 267 266 264 264 265 267 268 267 269 270 273 271 268 269 270 271 269 263 259 258 257 259 262 263 265 267 269
262 262 260 258 260 262 262 263 264 264 264 264 264 265 266 266 266 266 265 263 263 264 267 266 266 267 269 272 266 266 268 270 271 267 263 261 260 260 261 264 265 268 270
254 258 260 261 262 261 261 261 260 262 263 262 262 263 264 265 266 266 265 264 263 263 265 266 265 265 265 269 270 265 265 267 269 270 267 264 262 264 266 267 267 269 270
251 249 253 257 258 258 260 260 262 262 262 263 263 262 263 264 265 265 265 262 261 262 263 264 264 265 264 265 269 268 265 266 268 269 269 268 268 267 268 267 267 268 270
257 252 248 247 251 256 257 256 256 258 260 261 262 262 262 262 261 262 263 263 261 261 261 262 263 263 264 263 266 269 266 265 266 268 269 269 270 270 270 269 269 269 269
265 261 256 252 248 248 252 254 254 255 257 259 259 260 261 260 261 260 262 262 263 261 261 260 261 263 264 263 264 268 269 265 263 264 266 268 269 270 271 271 270 268 267
265 265 263 258 256 254 249 249 252 253 254 257 259 258 257 258 259 260 259 262 262 262 261 259 260 261 261 263 263 266 269 270 267 266 266 268 269 269 269 269 269 268 267
261 264 264 261 259 257 254 247 249 252 252 252 255 257 258 256 256 257 259 259 262 262 260 258 259 259 260 262 263 264 267 270 268 265 265 266 267 269 270 270 270 269 268
262 262 261 264 262 259 256 252 248 248 253 251 250 254 255 257 256 256 257 258 258 260 260 259 258 258 259 261 262 264 267 270 271 267 265 265 266 266 267 268 269 269 269
258 258 258 260 262 261 258 253 246 247 250 253 250 249 253 254 255 255 255 257 256 257 257 260 259 259 259 260 262 263 266 269 271 268 265 264 265 266 267 267 268 268 268
258 257 256 256 256 257 257 255 251 246 250 248 251 248 248 253 253 253 254 255 256 254 254 256 257 258 258 260 261 263 265 268 270 269 268 267 267 268 268 268 268 270 271
260 254 252 252 252 251 252 254 253 251 249 244 245 247 246 248 252 252 252 252 254 254 252 253 255 256 257 258 259 262 265 269 271 271 270 269 269 269 268 267 268 270 271
271 266 256 250 249 248 247 247 249 248 249 244 240 241 243 245 249 250 250 250 250 252 249 251 254 256 257 258 260 263 267 270 272 272 272 272 271 270 270 270 271 273 273
275 274 269 262 248 244 244 244 244 245 243 242 240 236 238 240 245 248 249 248 247 249 250 250 251 254 256 259 261 265 270 273 274 275 274 273 273 273 273 275 277 276 275
276 276 275 265 257 247 242 240 239 239 238 238 237 235 233 234 239 244 247 246 245 248 250 248 249 252 256 258 261 266 271 274 275 275 276 276 276 277 279 280 279 279 279
276 278 285 263 262 258 252 248 248 248 239 236 235 232 230 230 234 240 243 244 243 245 248 247 247 251 254 258 262 267 272 274 274 276 277 277 279 282 283 283 283 281 280
277 279 282 262 266 263 256 252 253 250 250 244 223 233 234 227 230 235 239 241 241 241 243 246 246 249 253 259 265 269 272 273 277 279 280 281 283 284 284 283 285 289 286
272 279 283 263 262 263 254 256 258 255 250 237 230 223 230 231 229 231 234 235 239 237 241 244 244 247 254 260 265 269 271 275 279 282 283 287 287 287 289 293 290 288 288
267 273 281 268 259 259 256 256 256 252 244 225 212 215 224 232 227 226 227 230 235 233 238 240 242 249 255 261 266 272 276 279 283 288 288 289 291 296 292 284 285 291 281
262 269 282 265 255 252 256 263 259 254 256 209 195 210 217 227 231 222 221 227 229 232 234 235 242 251 259 265 269 274 281 284 290 289 292 297 294 296 282 281 288 284 278
259 267 279 263 256 254 262 261 259 245 244 206 204 209 216 221 223 217 215 221 225 228 228 235 245 254 262 269 275 281 287 290 290 297 294 293 289 289 284 277 280 270 268
256 267 274 268 260 265 265 256 248 209 188 175 179 186 202 206 214 210 211 217 222 221 227 238 248 257 264 273 280 288 289 294 301 301 285 292 286 286 290 281 273 263 259